Year,Month,Day,Hour,Minute,Value (Times are PST for temperature in C)
2017,10,29,00,00,7.50
2017,10,29,00,01,7.40
2017,10,29,00,02,7.50
2017,10,29,00,03,7.50
2017,10,29,00,04,7.50
2017,10,29,00,05,7.50
2017,10,29,00,06,7.50
2017,10,29,00,07,7.50
2017,10,29,00,08,7.50
2017,10,29,00,09,7.50
2017,10,29,00,10,7.50
2017,10,29,00,11,7.50
2017,10,29,00,12,7.50
2017,10,29,00,13,7.50
2017,10,29,00,14,7.50
2017,10,29,00,15,7.50
2017,10,29,00,16,7.40
2017,10,29,00,17,7.40
2017,10,29,00,18,7.40
2017,10,29,00,19,7.40
2017,10,29,00,20,7.40
2017,10,29,00,21,7.40
2017,10,29,00,22,7.40
2017,10,29,00,23,7.40
2017,10,29,00,24,7.30
2017,10,29,00,25,7.30
2017,10,29,00,26,7.30
2017,10,29,00,27,7.30
2017,10,29,00,28,7.20
2017,10,29,00,29,7.20
2017,10,29,00,30,7.20
2017,10,29,00,31,7.20
2017,10,29,00,32,7.20
2017,10,29,00,33,7.20
2017,10,29,00,34,7.20
2017,10,29,00,35,7.20
2017,10,29,00,36,7.20
2017,10,29,00,37,7.20
2017,10,29,00,38,7.20
2017,10,29,00,39,7.20
2017,10,29,00,40,7.20
2017,10,29,00,41,7.20
2017,10,29,00,42,7.20
2017,10,29,00,43,7.20
2017,10,29,00,44,7.20
2017,10,29,00,45,7.20
2017,10,29,00,46,7.20
2017,10,29,00,47,7.20
2017,10,29,00,48,7.20
2017,10,29,00,49,7.20
2017,10,29,00,50,7.20
2017,10,29,00,51,7.20
2017,10,29,00,52,7.20
2017,10,29,00,53,7.20
2017,10,29,00,54,7.20
2017,10,29,00,55,7.20
2017,10,29,00,56,7.20
2017,10,29,00,57,7.20
2017,10,29,00,58,7.20
2017,10,29,00,59,7.20
2017,10,29,01,00,7.20
2017,10,29,01,01,7.20
2017,10,29,01,02,7.20
2017,10,29,01,03,7.10
2017,10,29,01,04,7.10
2017,10,29,01,05,7.10
2017,10,29,01,06,7.10
2017,10,29,01,07,7.00
2017,10,29,01,08,7.00
2017,10,29,01,09,7.00
2017,10,29,01,10,6.90
2017,10,29,01,11,7.00
2017,10,29,01,12,7.00
2017,10,29,01,13,7.00
2017,10,29,01,14,7.00
2017,10,29,01,15,7.00
2017,10,29,01,16,7.00
2017,10,29,01,17,7.00
2017,10,29,01,18,7.10
2017,10,29,01,19,7.10
2017,10,29,01,20,7.10
2017,10,29,01,21,7.10
2017,10,29,01,22,7.20
2017,10,29,01,23,7.20
2017,10,29,01,24,7.20
2017,10,29,01,25,7.20
2017,10,29,01,26,7.20
2017,10,29,01,27,7.20
2017,10,29,01,28,7.20
2017,10,29,01,29,7.20
2017,10,29,01,30,7.20
2017,10,29,01,31,7.20
2017,10,29,01,32,7.10
2017,10,29,01,33,7.10
2017,10,29,01,34,7.10
2017,10,29,01,35,7.10
2017,10,29,01,36,7.10
2017,10,29,01,37,7.10
2017,10,29,01,38,7.00
2017,10,29,01,39,7.00
2017,10,29,01,40,7.00
2017,10,29,01,41,7.00
2017,10,29,01,42,7.00
2017,10,29,01,43,7.00
2017,10,29,01,44,7.00
2017,10,29,01,45,7.00
2017,10,29,01,46,7.00
2017,10,29,01,47,7.00
2017,10,29,01,48,7.00
2017,10,29,01,49,7.00
2017,10,29,01,50,7.00
2017,10,29,01,51,7.00
2017,10,29,01,52,7.00
2017,10,29,01,53,7.00
2017,10,29,01,54,7.00
2017,10,29,01,55,6.90
2017,10,29,01,56,6.90
2017,10,29,01,57,6.90
2017,10,29,01,58,6.90
2017,10,29,01,59,6.90
2017,10,29,02,00,6.90
2017,10,29,02,01,6.90
2017,10,29,02,02,6.90
2017,10,29,02,03,6.90
2017,10,29,02,04,6.90
2017,10,29,02,05,7.00
2017,10,29,02,06,7.00
2017,10,29,02,07,7.00
2017,10,29,02,08,7.00
2017,10,29,02,09,7.00
2017,10,29,02,10,7.10
2017,10,29,02,11,7.10
2017,10,29,02,12,7.10
2017,10,29,02,13,7.10
2017,10,29,02,14,7.10
2017,10,29,02,15,7.10
2017,10,29,02,16,7.10
2017,10,29,02,17,7.10
2017,10,29,02,18,7.10
2017,10,29,02,19,7.10
2017,10,29,02,20,7.10
2017,10,29,02,21,7.10
2017,10,29,02,22,7.10
2017,10,29,02,23,7.10
2017,10,29,02,24,7.10
2017,10,29,02,25,7.10
2017,10,29,02,26,7.10
2017,10,29,02,27,7.10
2017,10,29,02,28,7.10
2017,10,29,02,29,7.10
2017,10,29,02,30,7.10
2017,10,29,02,31,7.10
2017,10,29,02,32,7.10
2017,10,29,02,33,7.10
2017,10,29,02,34,7.10
2017,10,29,02,35,7.10
2017,10,29,02,36,7.10
2017,10,29,02,37,7.10
2017,10,29,02,38,7.10
2017,10,29,02,39,7.10
2017,10,29,02,40,7.10
2017,10,29,02,41,7.10
2017,10,29,02,42,7.10
2017,10,29,02,43,7.10
2017,10,29,02,44,7.10
2017,10,29,02,45,7.10
2017,10,29,02,46,7.10
2017,10,29,02,47,7.10
2017,10,29,02,48,7.10
2017,10,29,02,49,7.10
2017,10,29,02,50,7.10
2017,10,29,02,51,7.10
2017,10,29,02,52,7.20
2017,10,29,02,53,7.20
2017,10,29,02,54,7.20
2017,10,29,02,55,7.20
2017,10,29,02,56,7.20
2017,10,29,02,57,7.20
2017,10,29,02,58,7.20
2017,10,29,02,59,7.20
2017,10,29,03,00,7.20
2017,10,29,03,01,7.20
2017,10,29,03,02,7.20
2017,10,29,03,03,7.20
2017,10,29,03,04,7.20
2017,10,29,03,05,7.20
2017,10,29,03,06,7.20
2017,10,29,03,07,7.20
2017,10,29,03,08,7.20
2017,10,29,03,09,7.20
2017,10,29,03,10,7.10
2017,10,29,03,11,7.10
2017,10,29,03,12,7.10
2017,10,29,03,13,7.10
2017,10,29,03,14,7.10
2017,10,29,03,15,7.10
2017,10,29,03,16,7.20
2017,10,29,03,17,7.10
2017,10,29,03,18,7.10
2017,10,29,03,19,7.10
2017,10,29,03,20,7.10
2017,10,29,03,21,7.10
2017,10,29,03,22,7.10
2017,10,29,03,23,7.10
2017,10,29,03,24,7.10
2017,10,29,03,25,7.00
2017,10,29,03,26,7.00
2017,10,29,03,27,7.00
2017,10,29,03,28,7.00
2017,10,29,03,29,7.00
2017,10,29,03,30,7.00
2017,10,29,03,31,7.00
2017,10,29,03,32,7.00
2017,10,29,03,33,7.00
2017,10,29,03,34,7.00
2017,10,29,03,35,6.90
2017,10,29,03,36,6.90
2017,10,29,03,37,6.90
2017,10,29,03,38,6.90
2017,10,29,03,39,6.90
2017,10,29,03,40,6.90
2017,10,29,03,41,6.90
2017,10,29,03,42,6.90
2017,10,29,03,43,6.90
2017,10,29,03,44,6.90
2017,10,29,03,45,6.90
2017,10,29,03,46,6.90
2017,10,29,03,47,6.90
2017,10,29,03,48,6.90
2017,10,29,03,49,6.90
2017,10,29,03,50,6.90
2017,10,29,03,51,6.90
2017,10,29,03,52,6.90
2017,10,29,03,53,6.90
2017,10,29,03,54,7.00
2017,10,29,03,55,7.00
2017,10,29,03,56,7.00
2017,10,29,03,57,7.10
2017,10,29,03,58,7.10
2017,10,29,03,59,7.10
2017,10,29,04,00,7.10
2017,10,29,04,01,7.10
2017,10,29,04,02,7.10
2017,10,29,04,03,7.10
2017,10,29,04,04,7.10
2017,10,29,04,05,7.10
2017,10,29,04,06,7.10
2017,10,29,04,07,7.10
2017,10,29,04,08,7.10
2017,10,29,04,09,7.10
2017,10,29,04,10,7.10
2017,10,29,04,11,7.00
2017,10,29,04,12,7.00
2017,10,29,04,13,7.00
2017,10,29,04,14,7.00
2017,10,29,04,15,7.00
2017,10,29,04,16,7.00
2017,10,29,04,17,6.90
2017,10,29,04,18,6.90
2017,10,29,04,19,6.90
2017,10,29,04,20,6.90
2017,10,29,04,21,6.80
2017,10,29,04,22,6.80
2017,10,29,04,23,6.80
2017,10,29,04,24,6.80
2017,10,29,04,25,6.80
2017,10,29,04,26,6.70
2017,10,29,04,27,6.70
2017,10,29,04,28,6.70
2017,10,29,04,29,6.70
2017,10,29,04,30,6.60
2017,10,29,04,31,6.60
2017,10,29,04,32,6.60
2017,10,29,04,33,6.60
2017,10,29,04,34,6.50
2017,10,29,04,35,6.50
2017,10,29,04,36,6.50
2017,10,29,04,37,6.40
2017,10,29,04,38,6.40
2017,10,29,04,39,6.40
2017,10,29,04,40,6.40
2017,10,29,04,41,6.30
2017,10,29,04,42,6.30
2017,10,29,04,43,6.30
2017,10,29,04,44,6.30
2017,10,29,04,45,6.30
2017,10,29,04,46,6.30
2017,10,29,04,47,6.40
2017,10,29,04,48,6.40
2017,10,29,04,49,6.40
2017,10,29,04,50,6.40
2017,10,29,04,51,6.40
2017,10,29,04,52,6.40
2017,10,29,04,53,6.40
2017,10,29,04,54,6.40
2017,10,29,04,55,6.40
2017,10,29,04,56,6.40
2017,10,29,04,57,6.40
2017,10,29,04,58,6.40
2017,10,29,04,59,6.40
2017,10,29,05,00,6.50
2017,10,29,05,01,6.50
2017,10,29,05,02,6.50
2017,10,29,05,03,6.60
2017,10,29,05,04,6.60
2017,10,29,05,05,6.60
2017,10,29,05,06,6.60
2017,10,29,05,07,6.60
2017,10,29,05,08,6.60
2017,10,29,05,09,6.60
2017,10,29,05,10,6.60
2017,10,29,05,11,6.60
2017,10,29,05,12,6.60
2017,10,29,05,13,6.60
2017,10,29,05,14,6.60
2017,10,29,05,15,6.60
2017,10,29,05,16,6.60
2017,10,29,05,17,6.50
2017,10,29,05,18,6.50
2017,10,29,05,19,6.50
2017,10,29,05,20,6.50
2017,10,29,05,21,6.40
2017,10,29,05,22,6.40
2017,10,29,05,23,6.40
2017,10,29,05,24,6.40
2017,10,29,05,25,6.40
2017,10,29,05,26,6.40
2017,10,29,05,27,6.30
2017,10,29,05,28,6.30
2017,10,29,05,29,6.30
2017,10,29,05,30,6.30
2017,10,29,05,31,6.30
2017,10,29,05,32,6.30
2017,10,29,05,33,6.20
2017,10,29,05,34,6.20
2017,10,29,05,35,6.20
2017,10,29,05,36,6.20
2017,10,29,05,37,6.20
2017,10,29,05,38,6.20
2017,10,29,05,39,6.20
2017,10,29,05,40,6.20
2017,10,29,05,41,6.20
2017,10,29,05,42,6.20
2017,10,29,05,43,6.20
2017,10,29,05,44,6.20
2017,10,29,05,45,6.20
2017,10,29,05,46,6.20
2017,10,29,05,47,6.20
2017,10,29,05,48,6.20
2017,10,29,05,49,6.20
2017,10,29,05,50,6.20
2017,10,29,05,51,6.20
2017,10,29,05,52,6.20
2017,10,29,05,53,6.20
2017,10,29,05,54,6.20
2017,10,29,05,55,6.20
2017,10,29,05,56,6.20
2017,10,29,05,57,6.20
2017,10,29,05,58,6.20
2017,10,29,05,59,6.20
2017,10,29,06,00,6.20
2017,10,29,06,01,6.20
2017,10,29,06,02,6.20
2017,10,29,06,03,6.20
2017,10,29,06,04,6.20
2017,10,29,06,05,6.10
2017,10,29,06,06,6.10
2017,10,29,06,07,6.10
2017,10,29,06,08,6.10
2017,10,29,06,09,6.10
2017,10,29,06,10,6.10
2017,10,29,06,11,6.10
2017,10,29,06,12,6.10
2017,10,29,06,13,6.10
2017,10,29,06,14,6.10
2017,10,29,06,15,6.10
2017,10,29,06,16,6.10
2017,10,29,06,17,6.10
2017,10,29,06,18,6.10
2017,10,29,06,19,6.10
2017,10,29,06,20,6.10
2017,10,29,06,21,6.10
2017,10,29,06,22,6.10
2017,10,29,06,23,6.10
2017,10,29,06,24,6.10
2017,10,29,06,25,6.10
2017,10,29,06,26,6.00
2017,10,29,06,27,6.00
2017,10,29,06,28,6.00
2017,10,29,06,29,6.00
2017,10,29,06,30,6.00
2017,10,29,06,31,5.90
2017,10,29,06,32,5.90
2017,10,29,06,33,5.90
2017,10,29,06,34,5.90
2017,10,29,06,35,5.90
2017,10,29,06,36,5.90
2017,10,29,06,37,5.90
2017,10,29,06,38,5.90
2017,10,29,06,39,5.90
2017,10,29,06,40,5.80
2017,10,29,06,41,5.80
2017,10,29,06,42,5.80
2017,10,29,06,43,5.80
2017,10,29,06,44,5.80
2017,10,29,06,45,5.80
2017,10,29,06,46,5.80
2017,10,29,06,47,5.80
2017,10,29,06,48,5.80
2017,10,29,06,49,5.80
2017,10,29,06,50,5.80
2017,10,29,06,51,5.80
2017,10,29,06,52,5.80
2017,10,29,06,53,5.80
2017,10,29,06,54,5.90
2017,10,29,06,55,5.90
2017,10,29,06,56,5.90
2017,10,29,06,57,5.90
2017,10,29,06,58,5.90
2017,10,29,06,59,5.90
2017,10,29,07,00,5.90
2017,10,29,07,01,5.90
2017,10,29,07,02,5.90
2017,10,29,07,03,5.90
2017,10,29,07,04,6.00
2017,10,29,07,05,6.00
2017,10,29,07,06,6.00
2017,10,29,07,07,6.00
2017,10,29,07,08,6.00
2017,10,29,07,09,6.00
2017,10,29,07,10,6.00
2017,10,29,07,11,6.00
2017,10,29,07,12,6.00
2017,10,29,07,13,6.00
2017,10,29,07,14,6.00
2017,10,29,07,15,6.00
2017,10,29,07,16,6.10
2017,10,29,07,17,6.10
2017,10,29,07,18,6.10
2017,10,29,07,19,6.10
2017,10,29,07,20,6.10
2017,10,29,07,21,6.10
2017,10,29,07,22,6.10
2017,10,29,07,23,6.10
2017,10,29,07,24,6.10
2017,10,29,07,25,6.10
2017,10,29,07,26,6.10
2017,10,29,07,27,6.10
2017,10,29,07,28,6.10
2017,10,29,07,29,6.10
2017,10,29,07,30,6.10
2017,10,29,07,31,6.10
2017,10,29,07,32,6.10
2017,10,29,07,33,6.10
2017,10,29,07,34,6.10
2017,10,29,07,35,6.10
2017,10,29,07,36,6.10
2017,10,29,07,37,6.10
2017,10,29,07,38,6.20
2017,10,29,07,39,6.20
2017,10,29,07,40,6.20
2017,10,29,07,41,6.20
2017,10,29,07,42,6.20
2017,10,29,07,43,6.20
2017,10,29,07,44,6.20
2017,10,29,07,45,6.20
2017,10,29,07,46,6.20
2017,10,29,07,47,6.20
2017,10,29,07,48,6.20
2017,10,29,07,49,6.20
2017,10,29,07,50,6.20
2017,10,29,07,51,6.20
2017,10,29,07,52,6.10
2017,10,29,07,53,6.10
2017,10,29,07,54,6.10
2017,10,29,07,55,6.10
2017,10,29,07,56,6.10
2017,10,29,07,57,6.10
2017,10,29,07,58,6.10
2017,10,29,07,59,6.10
2017,10,29,08,00,6.10
2017,10,29,08,01,6.10
2017,10,29,08,02,6.10
2017,10,29,08,03,6.10
2017,10,29,08,04,6.00
2017,10,29,08,05,6.00
2017,10,29,08,06,6.00
2017,10,29,08,07,6.00
2017,10,29,08,08,6.00
2017,10,29,08,09,6.00
2017,10,29,08,10,6.00
2017,10,29,08,11,6.00
2017,10,29,08,12,6.00
2017,10,29,08,13,6.00
2017,10,29,08,14,6.00
2017,10,29,08,15,5.90
2017,10,29,08,16,5.90
2017,10,29,08,17,5.90
2017,10,29,08,18,5.90
2017,10,29,08,19,5.90
2017,10,29,08,20,5.90
2017,10,29,08,21,5.80
2017,10,29,08,22,5.80
2017,10,29,08,23,5.80
2017,10,29,08,24,5.80
2017,10,29,08,25,5.80
2017,10,29,08,26,5.80
2017,10,29,08,27,5.80
2017,10,29,08,28,5.80
2017,10,29,08,29,5.80
2017,10,29,08,30,5.80
2017,10,29,08,31,5.80
2017,10,29,08,32,5.80
2017,10,29,08,33,5.80
2017,10,29,08,34,5.80
2017,10,29,08,35,5.90
2017,10,29,08,36,5.90
2017,10,29,08,37,5.90
2017,10,29,08,38,5.90
2017,10,29,08,39,5.90
2017,10,29,08,40,6.00
2017,10,29,08,41,6.00
2017,10,29,08,42,6.00
2017,10,29,08,43,6.00
2017,10,29,08,44,6.00
2017,10,29,08,45,6.10
2017,10,29,08,46,6.10
2017,10,29,08,47,6.10
2017,10,29,08,48,6.10
2017,10,29,08,49,6.10
2017,10,29,08,50,6.20
2017,10,29,08,51,6.20
2017,10,29,08,52,6.20
2017,10,29,08,53,6.20
2017,10,29,08,54,6.20
2017,10,29,08,55,6.20
2017,10,29,08,56,6.20
2017,10,29,08,57,6.20
2017,10,29,08,58,6.20
2017,10,29,08,59,6.20
2017,10,29,09,00,6.10
2017,10,29,09,01,6.10
2017,10,29,09,02,6.10
2017,10,29,09,03,6.10
2017,10,29,09,04,6.20
2017,10,29,09,05,6.20
2017,10,29,09,06,6.20
2017,10,29,09,07,6.20
2017,10,29,09,08,6.20
2017,10,29,09,09,6.20
2017,10,29,09,10,6.20
2017,10,29,09,11,6.20
2017,10,29,09,12,6.30
2017,10,29,09,13,6.30
2017,10,29,09,14,6.30
2017,10,29,09,15,6.30
2017,10,29,09,16,6.30
2017,10,29,09,17,6.40
2017,10,29,09,18,6.40
2017,10,29,09,19,6.40
2017,10,29,09,20,6.40
2017,10,29,09,21,6.40
2017,10,29,09,22,6.40
2017,10,29,09,23,6.40
2017,10,29,09,24,6.50
2017,10,29,09,25,6.50
2017,10,29,09,26,6.50
2017,10,29,09,27,6.50
2017,10,29,09,28,6.60
2017,10,29,09,29,6.60
2017,10,29,09,30,6.60
2017,10,29,09,31,6.70
2017,10,29,09,32,6.70
2017,10,29,09,33,6.70
2017,10,29,09,34,6.70
2017,10,29,09,35,6.70
2017,10,29,09,36,6.70
2017,10,29,09,37,6.80
2017,10,29,09,38,6.80
2017,10,29,09,39,6.80
2017,10,29,09,40,6.90
2017,10,29,09,41,7.00
2017,10,29,09,42,7.00
2017,10,29,09,43,7.10
2017,10,29,09,44,7.10
2017,10,29,09,45,7.10
2017,10,29,09,46,7.10
2017,10,29,09,47,7.10
2017,10,29,09,48,7.20
2017,10,29,09,49,7.20
2017,10,29,09,50,7.20
2017,10,29,09,51,7.20
2017,10,29,09,52,7.20
2017,10,29,09,53,7.20
2017,10,29,09,54,7.20
2017,10,29,09,55,7.20
2017,10,29,09,56,7.30
2017,10,29,09,57,7.30
2017,10,29,09,58,7.30
2017,10,29,09,59,7.40
2017,10,29,10,00,7.40
2017,10,29,10,01,7.40
2017,10,29,10,02,7.40
2017,10,29,10,03,7.50
2017,10,29,10,04,7.50
2017,10,29,10,05,7.50
2017,10,29,10,06,7.60
2017,10,29,10,07,7.60
2017,10,29,10,08,7.60
2017,10,29,10,09,7.70
2017,10,29,10,10,7.70
2017,10,29,10,11,7.70
2017,10,29,10,12,7.70
2017,10,29,10,13,7.80
2017,10,29,10,14,7.80
2017,10,29,10,15,7.80
2017,10,29,10,16,7.90
2017,10,29,10,17,7.90
2017,10,29,10,18,8.00
2017,10,29,10,19,8.00
2017,10,29,10,20,8.00
2017,10,29,10,21,8.10
2017,10,29,10,22,8.20
2017,10,29,10,23,8.20
2017,10,29,10,24,8.20
2017,10,29,10,25,8.30
2017,10,29,10,26,8.40
2017,10,29,10,27,8.40
2017,10,29,10,28,8.50
2017,10,29,10,29,8.50
2017,10,29,10,30,8.60
2017,10,29,10,31,8.60
2017,10,29,10,32,8.70
2017,10,29,10,33,8.70
2017,10,29,10,34,8.70
2017,10,29,10,35,8.80
2017,10,29,10,36,8.80
2017,10,29,10,37,8.90
2017,10,29,10,38,9.00
2017,10,29,10,39,9.10
2017,10,29,10,40,9.20
2017,10,29,10,41,9.30
2017,10,29,10,42,9.40
2017,10,29,10,43,9.50
2017,10,29,10,44,9.60
2017,10,29,10,45,9.70
2017,10,29,10,46,9.70
2017,10,29,10,47,9.80
2017,10,29,10,48,9.80
2017,10,29,10,49,9.90
2017,10,29,10,50,10.00
2017,10,29,10,51,10.00
2017,10,29,10,52,10.10
2017,10,29,10,53,10.20
2017,10,29,10,54,10.30
2017,10,29,10,55,10.30
2017,10,29,10,56,10.40
2017,10,29,10,57,10.50
2017,10,29,10,58,10.60
2017,10,29,10,59,10.70
2017,10,29,11,00,10.70
2017,10,29,11,01,10.70
2017,10,29,11,02,10.70
2017,10,29,11,03,10.70
2017,10,29,11,04,10.80
2017,10,29,11,05,10.80
2017,10,29,11,06,10.80
2017,10,29,11,07,10.80
2017,10,29,11,08,10.90
2017,10,29,11,09,11.00
2017,10,29,11,10,11.00
2017,10,29,11,11,11.10
2017,10,29,11,12,11.10
2017,10,29,11,13,11.20
2017,10,29,11,14,11.20
2017,10,29,11,15,11.30
2017,10,29,11,16,11.30
2017,10,29,11,17,11.40
2017,10,29,11,18,11.50
2017,10,29,11,19,11.50
2017,10,29,11,20,11.60
2017,10,29,11,21,11.60
2017,10,29,11,22,11.70
2017,10,29,11,23,11.70
2017,10,29,11,24,11.70
2017,10,29,11,25,11.80
2017,10,29,11,26,11.90
2017,10,29,11,27,12.00
2017,10,29,11,28,12.10
2017,10,29,11,29,12.20
2017,10,29,11,30,12.30
2017,10,29,11,31,12.40
2017,10,29,11,32,12.50
2017,10,29,11,33,12.60
2017,10,29,11,34,12.70
2017,10,29,11,35,12.80
2017,10,29,11,36,12.90
2017,10,29,11,37,13.00
2017,10,29,11,38,13.10
2017,10,29,11,39,13.20
2017,10,29,11,40,13.30
2017,10,29,11,41,13.30
2017,10,29,11,42,13.40
2017,10,29,11,43,13.40
2017,10,29,11,44,13.50
2017,10,29,11,45,13.60
2017,10,29,11,46,13.70
2017,10,29,11,47,13.70
2017,10,29,11,48,13.80
2017,10,29,11,49,13.90
2017,10,29,11,50,13.90
2017,10,29,11,51,14.00
2017,10,29,11,52,14.00
2017,10,29,11,53,14.10
2017,10,29,11,54,14.20
2017,10,29,11,55,14.20
2017,10,29,11,56,14.30
2017,10,29,11,57,14.30
2017,10,29,11,58,14.30
2017,10,29,11,59,14.40
2017,10,29,12,00,14.50
2017,10,29,12,01,14.60
2017,10,29,12,02,14.70
2017,10,29,12,03,15.00
2017,10,29,12,04,15.00
2017,10,29,12,05,15.00
2017,10,29,12,06,15.00
2017,10,29,12,07,15.20
2017,10,29,12,08,15.40
2017,10,29,12,09,15.50
2017,10,29,12,10,15.60
2017,10,29,12,11,15.70
2017,10,29,12,12,15.80
2017,10,29,12,13,16.00
2017,10,29,12,14,16.10
2017,10,29,12,15,16.10
2017,10,29,12,16,16.20
2017,10,29,12,17,16.30
2017,10,29,12,18,16.40
2017,10,29,12,19,16.50
2017,10,29,12,20,16.50
2017,10,29,12,21,16.60
2017,10,29,12,22,16.70
2017,10,29,12,23,16.70
2017,10,29,12,24,16.70
2017,10,29,12,25,16.80
2017,10,29,12,26,16.80
2017,10,29,12,27,16.90
2017,10,29,12,28,17.00
2017,10,29,12,29,17.00
2017,10,29,12,30,17.00
2017,10,29,12,31,17.10
2017,10,29,12,32,17.10
2017,10,29,12,33,17.20
2017,10,29,12,34,17.20
2017,10,29,12,35,17.30
2017,10,29,12,36,17.30
2017,10,29,12,37,17.30
2017,10,29,12,38,17.40
2017,10,29,12,39,17.40
2017,10,29,12,40,17.50
2017,10,29,12,41,17.50
2017,10,29,12,42,17.60
2017,10,29,12,43,17.60
2017,10,29,12,44,17.70
2017,10,29,12,45,17.70
2017,10,29,12,46,17.70
2017,10,29,12,47,17.70
2017,10,29,12,48,17.70
2017,10,29,12,49,17.80
2017,10,29,12,50,17.80
2017,10,29,12,51,17.80
2017,10,29,12,52,17.80
2017,10,29,12,53,17.80
2017,10,29,12,54,17.80
2017,10,29,12,55,17.80
2017,10,29,12,56,17.90
2017,10,29,12,57,17.90
2017,10,29,12,58,17.90
2017,10,29,12,59,17.90
2017,10,29,13,00,17.90
2017,10,29,13,01,17.90
2017,10,29,13,02,17.90
2017,10,29,13,03,17.90
2017,10,29,13,04,17.90
2017,10,29,13,05,17.90
2017,10,29,13,06,17.90
2017,10,29,13,07,17.90
2017,10,29,13,08,17.90
2017,10,29,13,09,18.00
2017,10,29,13,10,18.00
2017,10,29,13,11,18.10
2017,10,29,13,12,18.10
2017,10,29,13,13,18.10
2017,10,29,13,14,18.20
2017,10,29,13,15,18.20
2017,10,29,13,16,18.20
2017,10,29,13,17,18.20
2017,10,29,13,18,18.20
2017,10,29,13,19,18.20
2017,10,29,13,20,18.20
2017,10,29,13,21,18.10
2017,10,29,13,22,18.10
2017,10,29,13,23,18.10
2017,10,29,13,24,18.00
2017,10,29,13,25,18.00
2017,10,29,13,26,18.00
2017,10,29,13,27,18.10
2017,10,29,13,28,18.10
2017,10,29,13,29,18.10
2017,10,29,13,30,18.20
2017,10,29,13,31,18.20
2017,10,29,13,32,18.20
2017,10,29,13,33,18.20
2017,10,29,13,34,18.20
2017,10,29,13,35,18.20
2017,10,29,13,36,18.10
2017,10,29,13,37,18.10
2017,10,29,13,38,18.10
2017,10,29,13,39,18.10
2017,10,29,13,40,18.10
2017,10,29,13,41,18.10
2017,10,29,13,42,18.20
2017,10,29,13,43,18.20
2017,10,29,13,44,18.20
2017,10,29,13,45,18.20
2017,10,29,13,46,18.20
2017,10,29,13,47,18.30
2017,10,29,13,48,18.30
2017,10,29,13,49,18.30
2017,10,29,13,50,18.30
2017,10,29,13,51,18.30
2017,10,29,13,52,18.30
2017,10,29,13,53,18.30
2017,10,29,13,54,18.30
2017,10,29,13,55,18.30
2017,10,29,13,56,18.30
2017,10,29,13,57,18.30
2017,10,29,13,58,18.30
2017,10,29,13,59,18.20
2017,10,29,14,00,18.30
2017,10,29,14,01,18.30
2017,10,29,14,02,18.30
2017,10,29,14,03,18.40
2017,10,29,14,04,18.40
2017,10,29,14,05,18.40
2017,10,29,14,06,18.40
2017,10,29,14,07,18.40
2017,10,29,14,08,18.40
2017,10,29,14,09,18.40
2017,10,29,14,10,18.40
2017,10,29,14,11,18.40
2017,10,29,14,12,18.40
2017,10,29,14,13,18.40
2017,10,29,14,14,18.40
2017,10,29,14,15,18.40
2017,10,29,14,16,18.50
2017,10,29,14,17,18.50
2017,10,29,14,18,18.50
2017,10,29,14,19,18.50
2017,10,29,14,20,18.50
2017,10,29,14,21,18.50
2017,10,29,14,22,18.50
2017,10,29,14,23,18.50
2017,10,29,14,24,18.50
2017,10,29,14,25,18.50
2017,10,29,14,26,18.60
2017,10,29,14,27,18.60
2017,10,29,14,28,18.60
2017,10,29,14,29,18.60
2017,10,29,14,30,18.60
2017,10,29,14,31,18.60
2017,10,29,14,32,18.60
2017,10,29,14,33,18.60
2017,10,29,14,34,18.60
2017,10,29,14,35,18.60
2017,10,29,14,36,18.60
2017,10,29,14,37,18.60
2017,10,29,14,38,18.60
2017,10,29,14,39,18.70
2017,10,29,14,40,18.70
2017,10,29,14,41,18.70
2017,10,29,14,42,18.70
2017,10,29,14,43,18.80
2017,10,29,14,44,18.80
2017,10,29,14,45,18.80
2017,10,29,14,46,18.80
2017,10,29,14,47,18.80
2017,10,29,14,48,18.90
2017,10,29,14,49,18.90
2017,10,29,14,50,18.90
2017,10,29,14,51,18.90
2017,10,29,14,52,19.00
2017,10,29,14,53,19.10
2017,10,29,14,54,19.10
2017,10,29,14,55,19.10
2017,10,29,14,56,19.10
2017,10,29,14,57,19.10
2017,10,29,14,58,19.10
2017,10,29,14,59,19.10
2017,10,29,15,00,19.10
2017,10,29,15,01,19.10
2017,10,29,15,02,19.10
2017,10,29,15,03,19.10
2017,10,29,15,04,19.10
2017,10,29,15,05,19.10
2017,10,29,15,06,19.10
2017,10,29,15,07,19.10
2017,10,29,15,08,19.10
2017,10,29,15,09,19.10
2017,10,29,15,10,19.10
2017,10,29,15,11,19.10
2017,10,29,15,12,19.10
2017,10,29,15,13,19.10
2017,10,29,15,14,19.10
2017,10,29,15,15,19.10
2017,10,29,15,16,19.10
2017,10,29,15,17,19.10
2017,10,29,15,18,19.10
2017,10,29,15,19,19.10
2017,10,29,15,20,19.10
2017,10,29,15,21,19.10
2017,10,29,15,22,19.10
2017,10,29,15,23,19.10
2017,10,29,15,24,19.10
2017,10,29,15,25,19.10
2017,10,29,15,26,19.10
2017,10,29,15,27,19.10
2017,10,29,15,28,19.10
2017,10,29,15,29,19.10
2017,10,29,15,30,19.20
2017,10,29,15,31,19.20
2017,10,29,15,32,19.10
2017,10,29,15,33,19.10
2017,10,29,15,34,19.20
2017,10,29,15,35,19.10
2017,10,29,15,36,19.10
2017,10,29,15,37,19.10
2017,10,29,15,38,19.10
2017,10,29,15,39,19.10
2017,10,29,15,40,19.10
2017,10,29,15,41,19.10
2017,10,29,15,42,19.10
2017,10,29,15,43,19.10
2017,10,29,15,44,19.10
2017,10,29,15,45,19.10
2017,10,29,15,46,19.10
2017,10,29,15,47,19.10
2017,10,29,15,48,19.00
2017,10,29,15,49,19.00
2017,10,29,15,50,18.90
2017,10,29,15,51,18.90
2017,10,29,15,52,18.80
2017,10,29,15,53,18.80
2017,10,29,15,54,18.70
2017,10,29,15,55,18.70
2017,10,29,15,56,18.60
2017,10,29,15,57,18.60
2017,10,29,15,58,18.50
2017,10,29,15,59,18.50
2017,10,29,16,00,18.40
2017,10,29,16,01,18.40
2017,10,29,16,02,18.30
2017,10,29,16,03,18.30
2017,10,29,16,04,18.30
2017,10,29,16,05,18.20
2017,10,29,16,06,18.20
2017,10,29,16,07,18.20
2017,10,29,16,08,18.20
2017,10,29,16,09,18.10
2017,10,29,16,10,18.10
2017,10,29,16,11,18.00
2017,10,29,16,12,18.00
2017,10,29,16,13,18.00
2017,10,29,16,14,17.90
2017,10,29,16,15,17.90
2017,10,29,16,16,17.90
2017,10,29,16,17,17.80
2017,10,29,16,18,17.80
2017,10,29,16,19,17.80
2017,10,29,16,20,17.80
2017,10,29,16,21,17.80
2017,10,29,16,22,17.70
2017,10,29,16,23,17.70
2017,10,29,16,24,17.70
2017,10,29,16,25,17.70
2017,10,29,16,26,17.70
2017,10,29,16,27,17.70
2017,10,29,16,28,17.60
2017,10,29,16,29,17.60
2017,10,29,16,30,17.60
2017,10,29,16,31,17.60
2017,10,29,16,32,17.60
2017,10,29,16,33,17.60
2017,10,29,16,34,17.60
2017,10,29,16,35,17.60
2017,10,29,16,36,17.60
2017,10,29,16,37,17.60
2017,10,29,16,38,17.60
2017,10,29,16,39,17.50
2017,10,29,16,40,17.50
2017,10,29,16,41,17.50
2017,10,29,16,42,17.50
2017,10,29,16,43,17.50
2017,10,29,16,44,17.50
2017,10,29,16,45,17.40
2017,10,29,16,46,17.40
2017,10,29,16,47,17.40
2017,10,29,16,48,17.30
2017,10,29,16,49,17.30
2017,10,29,16,50,17.30
2017,10,29,16,51,17.30
2017,10,29,16,52,17.30
2017,10,29,16,53,17.30
2017,10,29,16,54,17.20
2017,10,29,16,55,17.20
2017,10,29,16,56,17.20
2017,10,29,16,57,17.20
2017,10,29,16,58,17.10
2017,10,29,16,59,17.10
2017,10,29,17,00,17.10
2017,10,29,17,01,17.10
2017,10,29,17,02,17.10
2017,10,29,17,03,17.10
2017,10,29,17,04,17.00
2017,10,29,17,05,17.00
2017,10,29,17,06,17.00
2017,10,29,17,07,16.90
2017,10,29,17,08,16.90
2017,10,29,17,09,16.90
2017,10,29,17,10,16.90
2017,10,29,17,11,16.80
2017,10,29,17,12,16.80
2017,10,29,17,13,16.70
2017,10,29,17,14,16.70
2017,10,29,17,15,16.70
2017,10,29,17,16,16.70
2017,10,29,17,17,16.60
2017,10,29,17,18,16.60
2017,10,29,17,19,16.50
2017,10,29,17,20,16.50
2017,10,29,17,21,16.40
2017,10,29,17,22,16.30
2017,10,29,17,23,16.30
2017,10,29,17,24,16.30
2017,10,29,17,25,16.30
2017,10,29,17,26,16.20
2017,10,29,17,27,16.20
2017,10,29,17,28,16.10
2017,10,29,17,29,16.10
2017,10,29,17,30,16.00
2017,10,29,17,31,16.00
2017,10,29,17,32,15.90
2017,10,29,17,33,15.90
2017,10,29,17,34,15.80
2017,10,29,17,35,15.70
2017,10,29,17,36,15.70
2017,10,29,17,37,15.60
2017,10,29,17,38,15.50
2017,10,29,17,39,15.40
2017,10,29,17,40,15.30
2017,10,29,17,41,15.20
2017,10,29,17,42,15.00
2017,10,29,17,43,15.00
2017,10,29,17,44,15.00
2017,10,29,17,45,15.00
2017,10,29,17,46,15.00
2017,10,29,17,47,15.00